TimeCST,TemperatureF,Dew PointF,Humidity,Sea Level PressureIn,VisibilityMPH,Wind Direction,Wind SpeedMPH,Gust SpeedMPH,PrecipitationIn,Events,Conditions,WindDirDegrees,DateUTC
12:00 AM,68,54,50,29.85,12,East,8.1,,,,Scattered Clouds,80,2013-02-16 06:00:00
12:00 AM,68.0,53.6,60,30.00,-9999.0,East,8.1,-,N/A,,Clear,80,2013-02-16 06:00:00
1:00 AM,68.0,55.4,64,29.97,-9999.0,ENE,12.7,-,N/A,,Clear,70,2013-02-16 07:00:00
2:00 AM,68.0,53.6,60,29.96,-9999.0,East,6.9,-,N/A,,Clear,80,2013-02-16 08:00:00
3:00 AM,67,55,57,29.80,12,ENE,6.9,,,,Scattered Clouds,70,2013-02-16 09:00:00
3:00 AM,68.0,57.2,68,29.96,-9999.0,ENE,6.9,-,N/A,,Clear,70,2013-02-16 09:00:00
4:00 AM,66.2,55.4,68,29.96,-9999.0,NE,9.2,-,N/A,,Clear,50,2013-02-16 10:00:00
5:00 AM,68.0,53.6,60,29.97,-9999.0,East,8.1,-,N/A,,Clear,90,2013-02-16 11:00:00
6:00 AM,66,50,45,29.86,12,ENE,8.1,,,,,60,2013-02-16 12:00:00
6:00 AM,66.2,50.0,56,29.99,-9999.0,ENE,8.1,-,N/A,,Clear,60,2013-02-16 12:00:00
7:00 AM,69.8,55.4,60,30.01,-9999.0,ENE,8.1,-,N/A,,Clear,70,2013-02-16 13:00:00
8:00 AM,75.2,46.4,36,30.02,-9999.0,East,10.4,-,N/A,,Clear,100,2013-02-16 14:00:00
9:00 AM,79,37,13,29.88,12,East,10.4,,,,,100,2013-02-16 15:00:00
9:00 AM,78.8,37.4,23,30.04,-9999.0,East,10.4,-,N/A,,Clear,100,2013-02-16 15:00:00
10:00 AM,80.6,33.8,18,30.03,-9999.0,East,13.8,27.6,N/A,,Clear,100,2013-02-16 16:00:00
11:00 AM,84.2,41.0,22,30.02,-9999.0,East,10.4,-,N/A,,Clear,90,2013-02-16 17:00:00
12:00 PM,84,45,16,29.83,12,East,11.5,,,,,100,2013-02-16 18:00:00
12:00 PM,84.2,44.6,25,29.99,-9999.0,East,11.5,-,N/A,,Clear,100,2013-02-16 18:00:00
1:00 PM,86.0,50.0,29,29.96,6.2,East,9.2,20.7,N/A,,Partly Cloudy,100,2013-02-16 19:00:00
2:00 PM,84.2,53.6,35,29.94,6.2,East,9.2,20.7,N/A,,Partly Cloudy,90,2013-02-16 20:00:00
3:00 PM,83,55,28,29.79,12,ESE,11.5,,,,Scattered Clouds,110,2013-02-16 21:00:00
3:00 PM,82.4,55.4,39,29.92,6.2,ESE,11.5,-,N/A,,Partly Cloudy,110,2013-02-16 21:00:00
4:00 PM,80.6,57.2,45,29.93,6.2,East,11.5,-,N/A,,Partly Cloudy,90,2013-02-16 22:00:00
5:00 PM,77.0,55.4,47,29.95,6.2,East,12.7,-,N/A,,Partly Cloudy,80,2013-02-16 23:00:00
6:00 PM,73,59,53,29.83,12,ESE,8.1,,,,Scattered Clouds,110,2013-02-17 00:00:00
6:00 PM,73.4,59.0,61,29.98,6.2,ESE,8.1,-,N/A,,Partly Cloudy,110,2013-02-17 00:00:00
7:00 PM,71.6,60.8,69,30.00,6.2,East,9.2,-,N/A,,Partly Cloudy,90,2013-02-17 01:00:00
8:00 PM,69.8,59.0,68,30.02,6.2,East,5.8,-,N/A,,Partly Cloudy,100,2013-02-17 02:00:00
9:00 PM,69,57,57,29.87,12,East,12.7,,,,Scattered Clouds,100,2013-02-17 03:00:00
9:00 PM,69.8,57.2,64,30.03,6.2,East,12.7,-,N/A,,Partly Cloudy,100,2013-02-17 03:00:00
9:15 PM,69.8,57.2,64,30.04,6.2,East,15.0,28.8,N/A,,Partly Cloudy,90,2013-02-17 03:15:00
10:00 PM,68.0,57.2,68,30.06,6.2,East,12.7,27.6,N/A,,Partly Cloudy,100,2013-02-17 04:00:00
11:00 PM,68.0,55.4,64,30.05,6.2,ESE,15.0,26.5,N/A,,Partly Cloudy,110,2013-02-17 05:00:00